Flag for United Arab Emirates Weather past 2 weeks in Umm al-Quwain, Umm al-Quwain, United Arab Emirates

Now
102 °F

Clear.


Feels Like: 102 °F
Forecast: 95 / 101 °F
Wind: 6 mph from West

Location: Sharjah International Airport

Current Time: Jul 30, 2015 at 8:52:51 PM

Latest Report: Jul 30, 2015 at 8:00 PM


Visibility: 5 mi

Pressure: 29.45 "Hg

Humidity: 24%

Dew point: 59 °F

Historic Weather in Umm al-Quwain — Graph

°F

Umm al-Quwain temperature yesterday

Maximum temperature yesterday: 111 °F (at 11:00 AM)
Minimum temperature yesterday: 91 °F (at 4:00 AM)
Average temperature yesterday: 101 °F

Past Weeks' High & Low Weather Summary

 TemperatureHumidityPressure
High115 °F (Jul 27, 2:00 PM)84% (Jul 18, 1:00 AM)29.56 "Hg (Jul 18, 1:00 AM)
Low82 °F (Jul 20, 7:00 AM)9% (Jul 20, 11:00 AM)29.30 "Hg (Jul 17, 3:00 PM)
Average99 °F37%29.44 "Hg
* Reported Jul 15 7:00 PM — Jul 30 7:00 PM, Umm al-Quwain, Weather by CustomWeather, © 2015

Note: Actual official high and low records may vary slightly from our data, if they occured in-between our weather recording intervals... More about our weather records

Advertising

Umm al-Quwain weather history for previous 24 hours

 ConditionsComfort  
Time TempWeatherWind HumidityBarometerVisibility
7:00 PM
Thu, Jul 30
104 °FClear.8 mph23%29.45 "Hg5 mi
6:00 PM106 °FClear.9 mph22%29.45 "Hg5 mi
5:00 PM106 °FClear.12 mph23%29.45 "Hg5 mi
4:00 PM108 °FClear.15 mph19%29.45 "Hg5 mi
3:00 PM106 °FClear.16 mph22%29.47 "Hg5 mi
2:00 PM108 °FPassing clouds.17 mph20%29.47 "Hg5 mi
1:00 PM106 °FPassing clouds.16 mph23%29.50 "Hg4 mi
12:00 PM106 °FPassing clouds.16 mph22%29.53 "Hg4 mi
11:00 AM106 °FPassing clouds.18 mph20%29.53 "HgN/A
10:00 AM106 °FSunny.9 mph19%29.53 "Hg10 mi
9:00 AM102 °FClear.12 mph21%29.53 "Hg5 mi
8:00 AM97 °FDuststorm.13 mph28%29.50 "Hg3 mi
7:00 AM93 °FClear.2 mph32%29.53 "Hg4 mi
6:00 AM97 °FClear.6 mph28%29.50 "Hg4 mi
5:00 AM95 °FClear.10 mph30%29.50 "Hg10 mi
4:00 AM93 °FClear.5 mph34%29.47 "Hg10 mi
2:00 AM97 °FClear.6 mph32%29.47 "Hg10 mi
1:00 AM95 °FClear.6 mph34%29.47 "Hg10 mi
12:00 AM99 °FClear.7 mph37%29.45 "Hg10 mi
11:00 PM
Wed, Jul 29
95 °FClear.7 mph47%29.47 "Hg10 mi
10:00 PM99 °FClear.3 mph39%29.47 "Hg10 mi
9:00 PM97 °FClear.7 mph47%29.47 "Hg10 mi
8:00 PM100 °FClear.8 mph29%29.45 "Hg10 mi
Weather by CustomWeather, © 2015

See weather overviewHow to use our weather pages